Regional Weather Roundup
Issued by NWS

Home | Current Version | Previous Version | Text Only | Print | Product List | Glossary Off
Versions: 1 2 3 4 5 6 7 8 9 10 11 12 13 14 15 16 17 18 19 20 21 22 23 24 25 26 27 28 29 30 31 32 33 34 35 36 37 38 39 40 41 42 43 44 45 46 47 48 49 50

000
ASUS43 KMPX 230801
RWRMN
WEATHER ROUNDUP FOR MINNESOTA
NATIONAL WEATHER SERVICE TWIN CITIES/CHANHASSEN MN
300 AM CDT TUE SEP 23 2014


NOTE: "FAIR" INDICATES FEW OR NO CLOUDS BELOW 12,000 FEET WITH NO
SIGNIFICANT WEATHER AND/OR OBSTRUCTIONS TO VISIBILITY. N/A MEANS
CURRENT SKY AND/OR WEATHER CONDITIONS ARE NOT AVAILABLE.

MNZ060>063-068>070-230900-
   Twin Cities Metro

CITY           SKY/WX    TMP DP  RH WIND       PRES   REMARKS
TWIN CITIES    CLEAR     54  50  86 CALM      30.18F
ST PAUL        CLEAR     50  50 100 S3        30.19F
CRYSTAL        CLEAR     50  47  89 CALM      30.17S
BLAINE         CLEAR     52  52 100 S6        30.18S
LAKEVILLE      CLEAR     45  45 100 CALM      30.19S
EDEN PRAIRIE   CLEAR     54  49  83 CALM      30.17F
SOUTH ST PAUL  CLEAR     51  49  94 CALM      30.19S
LAKE ELMO      FAIR      46  46 100 CALM      30.19F
$$
MNZ001>005-007-008-013>017-022>024-027-028-230900-
   Northwest Minnesota

CITY           SKY/WX    TMP DP  RH WIND       PRES   REMARKS
BEMIDJI        CLEAR     45  44  96 CALM      30.11F
HALLOCK        CLEAR     52  48  87 SE9       30.02S
ROSEAU         CLEAR     52  46  82 S7        30.06F
WARROAD        CLEAR     54  48  82 S3        30.07F
THIEF RVR FALL CLEAR     54  46  76 SE7       30.06F
CROOKSTON      CLEAR     52  48  87 SE8       30.05S
FOSSTON        CLEAR     54  48  82 SE7       30.09S
DETROIT LAKES  CLEAR     54  50  87 SE6       30.11S
MOORHEAD       CLEAR     57  52  82 S9        30.06S
PARK RAPIDS    CLEAR     49  47  93 SE6       30.12F
MAHNOMEN       FAIR      53  47  82 SE8       30.08F
$$
MNZ006-009>011-018-025>026-230900-
   North Central Minnesota

CITY           SKY/WX    TMP DP  RH WIND       PRES   REMARKS
BAUDETTE       CLEAR     49  47  93 CALM      30.08F
FLAG ISLAND    CLEAR     57  52  82 S6        30.05F
INTL FALLS     CLEAR     42  41  96 CALM      30.11S
WASKISH        CLEAR     54  48  82 CALM      30.10F
BIG FORK       CLEAR     43  41  93 CALM      30.14S FOG
LONGVILLE      CLEAR     41  41 100 CALM      30.13F
GRAND RAPIDS   CLEAR     45  43  93 CALM      30.15S
CRANE LAKE     CLEAR     39  39 100 CALM      30.15R
ORR            CLEAR     48  46  93 CALM      30.12S
COOK           CLEAR     45  45 100 CALM      30.15S
WALKER         FAIR      50  47  88 CALM      30.12F
$$
MNZ012-019>021-037-230900-
   Northeast Minnesota

CITY           SKY/WX    TMP DP  RH WIND       PRES   REMARKS
DULUTH         CLEAR     55  47  74 W8        30.17R
ELY            CLEAR     43  41  93 CALM      30.15S
HIBBING        FOG       40  38  93 CALM      30.16S VSB 3/4
EVELETH        FOG       39  37  93 CALM      30.17R VSB 1/2
DULUTH HARBOR  CLEAR     55  52  88 SW9       30.16F
TWO HARBORS    CLEAR     54  46  76 W5        30.14S
SILVER BAY     CLEAR     45  45 100 CALM      30.13S
GRAND MARAIS     N/A     57  49  74 W5        30.11R
G MARAIS ARPRT CLEAR     57  45  62 W3        30.15S
$$
MNZ029>031-032-039>041-046>048-054>057-064-230900-
   West Central Minnesota

CITY           SKY/WX    TMP DP  RH WIND       PRES   REMARKS
FERGUS FALLS   CLEAR     57  46  67 S10       30.09F
WHEATON        CLEAR     48  46  93 SE6       30.09F
MORRIS         CLEAR     52  48  87 SE8       30.10S
ALEXANDRIA     CLEAR     51  46  83 SE6       30.13F
ELBOW LAKE     FAIR      53  48  82 SE9       30.10F
WADENA         CLEAR     46  43  87 SE3       30.12F
GLENWOOD       CLEAR     46  45  93 SE5       30.14S
APPLETON       CLEAR     54  48  82 SE7       30.10F
BENSON         CLEAR     52  46  82 S8        30.12S
ORTONVILLE     CLEAR     52  46  82 SE8       30.09S
MADISON        CLEAR     54  50  87 SE6       30.10F
WILLMAR        FAIR      48  45  87 SE5       30.15F
$$
MNZ033>034-036-042>043-049>051-058-059-230900-
   Central Minnesota

CITY           SKY/WX    TMP DP  RH WIND       PRES   REMARKS
ST CLOUD       CLEAR     49  46  90 CALM      30.16F
SAUK CENTRE    FAIR      48  46  91 SE3       30.14F
PAYNESVILLE    CLEAR     49  47  91 E5        30.16S
AITKIN         CLEAR     45  39  81 CALM      30.14S
PINE RIVER     CLEAR     46  46 100 CALM      30.17S
BRAINERD       CLEAR     46  46 100 CALM      30.15F
STAPLES        CLEAR     45  43  93 CALM      30.14S
LONG PRAIRIE   FAIR      46  45  93 CALM      30.15S
LITTLE FALLS   CLEAR     46  45  93 CALM      30.16S
LITCHFIELD     CLEAR     50  48  93 CALM      30.16F
BUFFALO        CLEAR     49  46  87 CALM      30.18F
MAPLE LAKE       N/A     47  47  98 CALM      30.17F FOG
$$
MNZ037-044-045-052-053-230900-
   East Central Minnesota

CITY           SKY/WX    TMP DP  RH WIND       PRES   REMARKS
PRINCETON      CLEAR     48  46  93 SE2       30.17F
MORA           CLEAR     45  45 100 CALM      30.19S FOG
CAMBRIDGE      CLEAR     54  45  71 CALM      30.16S
RUSH CITY      MOCLDY    48  47  97 CALM      30.18S
MOOSE LAKE     CLEAR     41  41 100 CALM      30.16S FOG
HINCKLEY       FAIR      43  43 100 CALM      30.17F
CLOQUET        CLEAR     48  46  93 CALM      30.17S
MCGREGOR         N/A     45  43  93 CALM      30.16F VSB 1
$$
MNZ071>073-080-081-089-090-097-098-230900-
   Southwest Minnesota

CITY           SKY/WX    TMP DP  RH WIND       PRES   REMARKS
MONTEVIDEO     CLEAR     54  48  82 S6        30.13F
GRANITE FALLS  CLEAR     49  47  92 SE6       30.15S
CANBY          CLEAR     50  47  90 SE5       30.12S
MARSHALL       CLEAR     52  45  76 S10       30.12S
REDWOOD FALLS  CLEAR     50  46  86 S7        30.14F
OLIVIA         CLEAR     52  46  82 SE6       30.14S
PIPESTONE      CLEAR     55  48  76 S6        30.12F
WINDOM         CLEAR     52  48  87 S3        30.17S
WORTHINGTON    CLEAR     54  46  76 S6        30.16F
JACKSON        CLEAR     52  46  82 S7        30.18S
TRACY          CLEAR     54  49  81 S9        30.14S
SLAYTON        CLEAR     47  46  97 CALM      30.15F
$$
MNZ065>067-074>077-082>085-091>093-230900-
   South Central Minnesota

CITY           SKY/WX    TMP DP  RH WIND       PRES   REMARKS
MANKATO        CLEAR     52  43  71 S9        30.18F
NEW ULM        CLEAR     50  48  93 S6        30.16F
ST JAMES       CLEAR     48  46  93 SE3       30.18F
FAIRMONT       CLEAR     46  41  81 S6        30.19S
GLENCOE        CLEAR     50  46  84 CALM      30.17S
FARIBAULT      CLEAR     46  43  87 CALM      30.20S
OWATONNA       CLEAR     52  46  82 CALM      30.20S
WASECA         CLEAR     45  41  87 S5        30.21F
ALBERT LEA     CLEAR     54  48  82 S3        30.21S
$$
MNZ078>079-086>088-094>096-230900-
   Southeast Minnesota

CITY           SKY/WX    TMP DP  RH WIND       PRES   REMARKS
ROCHESTER      CLEAR     47  45  93 S6        30.23S
RED WING       CLEAR     48  46  93 CALM      30.19F
STANTON        CLEAR     47  44  90 CALM      30.19S
DODGE CENTER   CLEAR     48  46  93 CALM      30.21S
WINONA         CLEAR     50  48  93 CALM      30.22F
AUSTIN         CLEAR     46  45  93 CALM      30.22S
PRESTON        CLEAR     50  49  98 SW7       30.24R
$$
ABBREVIATIONS USED IN REMARKS
   TC - TEMPERATURES IN CELSIUS
  WCI - WIND CHILL INDEX
   HX - HEAT INDEX
  VSB - VISIBILITY
$$


USA.gov is the U.S. government's official web portal to all federal, state and local government web resources and services.